STARLINK-34345, 64153

Orbit data source: Space-Track

STARLINK-34345, 64153 is a payload satellite owned by SpaceX/Seattle (US) in SSO that was launched on Tue, 27 May 2025 UTC via an FALCON 9 launch vehicle from the Air Force Western Test Range (AFWTR). Payload-class satellites include a variety of spacecraft equipped with specific instruments for various scientific and technological missions. These include communications satellites like Starlink; space stations such as the ISS; scientific satellites like the Hubble; Earth observation satellites from companies like Planet Labs, Umbra, and HawkEye 360; GPS; miniature CubeSats for education and research; and military/defense satellites.

Loading next visibility...
Identifier
64153, 2025-112H
Orbit
SSO
Country
Flag of USUS
Related business
Manufacturer
SpaceX/Seattle
Mission
Operational Commercial Communications
Bus & Motor
STARLINK V2MO, Unknown motor
Mass
575 kg wet, ~530 kg dry
Launch date (UTC)
2025-05-27 (1 year ago)
Launch vehicle
FALCON 9
Launch site
Air Force Western Test Range (AFWTR)
Object type
Payload
Rocket body
Debris
Shape & HBR
Box + 1 Pan, 17.7 m
Radar Cross Section
41.120 m², Large (>1 m²)

Expand to show TLE details & history
Last TLE update: 1 day ago

TLE from 1 day ago
0 STARLINK-34345
1 64153U 25112H   26236.12542042  .00014053  00000-0  43669-3 0  9993
2 64153  97.2837 283.5961 0001667  98.9107 261.2324 15.33452952 68558
Epoch: 2026-08-24T03:00Z
TLE epoch observation values (Epoch: 2026-08-24T03:00:36.324Z)
Latitude
-0.00006°
Longitude
-93.96685°
Altitude
468.806 km
Speed
7.632 km/s
True Right ascension
18h 54m 23s
True Declination
0° 00' 00"
Sunlit
Object was in full shadow at epoch
Visualization orbit readout
Latitude
Unknown
Longitude
Unknown
Altitude
Unknown
Speed
Unknown
Apparent Right ascension
Unknown
Apparent Declination
Unknown
Sunlit
N/A
Visualization observer readout
Local Sidereal Time
18:43:14
Azimuth
Unknown
Elevation
Unknown
Doppler factor
Unknown
Orbital elements
Apogee altitude
463.603 km
Perigee altitude
461.322 km
Semi-major axis
6,840.599 km
Eccentricity
0.00017
Inclination
97.2837°
RAAN
283.5961°
Arg. of periapsis
98.9107°
True anomaly
261.21352°
Mean anomaly
261.2324°
Eccentric anomaly
261.22296°
Mean motion
3.83621 °/min
Orbital period
93.84 mins
BSTAR
0.00043669
Loading maneuver chart data...
Computing Atmospheric mass density...
Loading historical data...
Loading historical data...
Loading historical data...
Loading historical data...
Loading historical data...
Loading historical data...
Loading historical data...

Documentation

Showing up to 5 results
|